Other Public Products
Issued by NWS Charleston, SC

Current Version | Previous Version | Text Only | Print | Product List | Glossary Off
Versions: 1 2 3 4 5 6 7 8 9 10 11 12 13 14 15 16 17 18 19 20 21 22 23 24 25 26 27 28 29 30 31 32 33 34 35 36 37 38 39 40 41 42 43 44 45 46 47 48 49 50

000
FPUS82 KCHS 270512
OPUCHS

TEST...KCHS/KSAV Gateway Observations...TEST
National Weather Service Charleston SC
100 AM EDT THU JUL 27 2017

NOTE: "fair" indicates few or no clouds below 12,000 feet with no
significant weather and/or obstructions to visibility.

SCZ050-WAZ558-NCZ071-TXZ119-213-PAZ071-DCZ001-FLZ074-172-MI076-
NYZ176-178-MAZ016-IL014-TNZ027-NJZ106-GAZ044-MD014-270600-

...Gateway Observations for Charleston International...

CITY           SKY/WX    TMP DP  RH WIND       PRES   REMARKS
Chas Airport   PTCLDY    76  74  93 CALM      30.07F
Seattle        PTCLDY    71  56  58 NW6       30.04R
Charlotte      CLOUDY    79  74  84 S10       30.12R
Dallas DFW     MOCLDY    88  71  57 S10       29.97S HX  94
Dallas Love    MOCLDY    89  71  55 SE14      29.98S HX  95
Philladelphia  MOCLDY    67  61  81 SE6       30.13F
Wash National  PTCLDY    74  70  87 SE7       30.11S
Baltimore      CLOUDY    72  68  87 SE7       30.10F
Miami          PTCLDY    84  74  71 E8        30.03F HX  91
Detroit        CLOUDY    73  68  84 SE5       30.01F
Newark         PTCLDY    67  59  75 S7        30.11F
Laguardia      MOCLDY    69  59  70 S9        30.11F
J F K          CLOUDY    67  61  81 S7        30.13F
Boston Logan   MOCLDY    65  58  78 SW10      30.09F
Ft. Lauderdale PTCLDY    85  75  72 SE10      30.03F HX  93
Chicago O`Hare LGT RAIN  78  71  79 SW5       29.95F
Chicago Midway LGT RAIN  78  72  81 W3        29.95F FOG
Houston Bush   PTCLDY    83  73  72 S3        30.05S
Houston Hobby  PTCLDY    83  74  74 CALM      30.06R
Nashville      CLEAR     83  74  74 SW3       30.03F
Atlanta        PTCLDY    74  66  76 E7        30.12S

$$

GAZ044-118-TXZ119-213-NCZ071-DCZ001-MDZ014-506-PAZ021-071-NJZ106-
NYZ176-178-MAZ106-OHZ011-021-055-MIZ076-KYZ091-ILZ014-INZ047-
MNZ060-ONZ431-270600-

...Gateway Observations for Savannah International...

CITY           SKY/WX    TMP DP  RH WIND       PRES   REMARKS
Savannah Arpt  MOCLDY   N/A N/A N/A CALM      30.07R
Atlanta        PTCLDY    74  66  76 E7        30.12S
Charlotte      CLOUDY    79  74  84 S10       30.12R
Dallas DFW     MOCLDY    88  71  57 S10       29.97S HX  94
Houston Bush   PTCLDY    83  73  72 S3        30.05S
Wash National  PTCLDY    74  70  87 SE7       30.11S
Wash Dulles    MOCLDY    72  66  81 S6        30.10S
Baltimore      CLOUDY    72  68  87 SE7       30.10F
Philadelphia   MOCLDY    67  61  81 SE6       30.13F
Newark         PTCLDY    67  59  75 S7        30.11F
Laguardia      MOCLDY    69  59  70 S9        30.11F
J F K          CLOUDY    67  61  81 S7        30.13F
Boston         MOCLDY    65  58  78 SW10      30.09F
Pittsburg      MOCLDY    67  65  93 S3        30.05F
Akron          MOCLDY    68  61  78 CALM      30.06F
Cleveland      CLOUDY    71  64  78 S7        30.04S
Cincinnati     MOCLDY    77  70  79 SE7       30.01F
Columbus       PTCLDY    66  64  93 CALM      30.03F
Detroit        CLOUDY    73  68  84 SE5       30.01F
Chicago O`Hare LGT RAIN  78  71  79 SW5       29.95F
Minneapolis    PTCLDY    71  63  75 W3        30.03R
Indianapolis   CLOUDY    77  72  84 SE6       29.97F
Toronto Canada LGT RAIN  66  64  94 SW5       29.98F

$$




USA.gov is the U.S. government's official web portal to all federal, state and local government web resources and services.